Regional Weather Roundup
Issued by NWS

Home | Current Version | Previous Version | Text Only | Print | Product List | Glossary Off
Versions: 1 2 3 4 5 6 7 8 9 10 11 12 13 14 15 16 17 18 19 20 21 22 23 24 25 26 27 28 29 30 31 32 33 34 35 36 37 38 39 40 41 42 43 44 45 46 47 48 49 50

842
ASUS43 KDMX 260501
RWRIA

WEATHER ROUNDUP FOR IOWA
NATIONAL WEATHER SERVICE DES MOINES IA
1200 AM CDT TUE SEP 26 2017

NOTE: "FAIR" INDICATES FEW OR NO CLOUDS BELOW 12,000 FEET WITH NO
SIGNIFICANT WEATHER AND/OR OBSTRUCTIONS TO VISIBILITY.

* - THESE STATIONS ARE NOT NWS STATIONS...THUS NOT UNDER NWS
QUALITY CONTROL.  THEY ALSO DO NOT REPORT WEATHER SUCH
AS PRECIPITATION OR FOG.

IAZ001>003-012>014-020>022-031>034-043>046-260600-
   NORTHWEST IOWA

CITY           SKY/WX    TMP DP  RH WIND       PRES   REMARKS
CARROLL *      LGT RAIN  63  63 100 N6        29.95S
CHEROKEE *     LGT RAIN  57  57 100 CALM      29.95F
DENISON *      CLOUDY    59  59 100 NE5       29.96F
LE MARS *      LGT RAIN  55  55 100 N6        29.97F
ORANGE CITY *  LGT RAIN  57  57 100 N3        29.97F
SHELDON *      CLOUDY    55  54  94 N5        29.96R
SIOUX CITY     LGT RAIN  56  56 100 NW9       29.97F
SPENCER        LGT RAIN  58  56  93 N3        29.96F
STORM LAKE *   DRIZZLE   57  57 100 NE7       29.95F
$$

IAZ055>058-069>071-079>083-090>094-260600-
   SOUTHWEST IOWA

CITY           SKY/WX    TMP DP  RH WIND       PRES   REMARKS
ATLANTIC *     CLOUDY    66  66 100 CALM      29.94F
AUDUBON *      LGT RAIN  63  61  94 CALM      29.96S
CLARINDA *       N/A    N/A N/A N/A S5        29.98R
COUNCIL BLFS * LGT RAIN  59  59 100 W5        29.96F
CRESTON *      CLOUDY    66  66 100 CALM      29.97F FOG
HARLAN  *      CLOUDY    63  63 100 CALM      29.98S
LAMONI         CLOUDY    67  67 100 W10       29.96R
RED OAK *      CLOUDY    66  66 100 W5        29.95S
SHENANDOAH *   CLOUDY    66  64  94 CALM      29.97R
$$

IAZ047>049-059>061-072>074-084-260600-
   CENTRAL IOWA

CITY           SKY/WX    TMP DP  RH WIND       PRES   REMARKS
AMES           CLOUDY    65  65 100 W3        29.94R
ANKENY *       CLOUDY    66  64  94 SW3       29.95R
BOONE *        CLOUDY    66  64  94 CALM      29.93F FOG
CHARITON *     MOCLDY    66  64  94 E8        29.92F
DES MOINES     CLOUDY    67  65  93 CALM      29.93R
GRINNELL*      CLOUDY    66  63  90 E7        29.94F
KNOXVILLE *    CLOUDY    66  63  88 E3        29.91F
MARSHALLTOWN   CLOUDY    65  65 100 SE9       29.92R
NEWTON *       PTCLDY    64  64 100 E7        29.93S
PELLA *        PTCLDY    66  63  90 E3        29.93F
PERRY *        CLOUDY    66  65  99 CALM      29.94S FOG
$$

IAZ004>006-015-016-023>025-035-036-260600-
   NORTH CENTRAL IOWA

CITY           SKY/WX    TMP DP  RH WIND       PRES   REMARKS
ALGONA *       CLOUDY    59  59 100 NE5       29.96R
CLARION *      CLOUDY    63  63 100 NW9       29.94S FOG
ESTHERVILLE    CLOUDY    56  56 100 N7        29.95F
FORT DODGE *   LGT RAIN  60  59  96 NE3       29.95F
MASON CITY     CLOUDY    64  63  96 NW5       29.95R
FOREST CITY *  CLOUDY    61  61 100 N6        29.95R FOG
WEBSTER CITY * LGT RAIN  64  63  94 NW7       29.93R
IOWA FALLS *   LGT RAIN  65  64  98 W3        29.94R
$$

IAZ007>011-017>019-026>030-037>042-050>054-066-260600-
   NORTHEAST IOWA

CITY           SKY/WX    TMP DP  RH WIND       PRES   REMARKS
CEDAR RAPIDS   MOCLDY    68  67  96 NE7       29.93F
CHARLES CITY * CLOUDY    66  66 100 E6        29.93S
CLINTON *      CLOUDY   N/A N/A N/A N6        29.93R
DECORAH *      MOCLDY    66  64  94 E6        29.94F
DUBUQUE        PTCLDY    67  65  93 NE7       29.96S
MONTICELLO *   MOCLDY    68  66  94 NW5       29.95R
OELWEIN *      CLOUDY    66  66 100 NE5       29.94F
WATERLOO       PTCLDY    64  64 100 E6        29.91F
$$

IAZ064-065-067-068-078-260600-
   EAST CENTRAL IOWA

CITY           SKY/WX    TMP DP  RH WIND       PRES   REMARKS
DAVENPORT      CLOUDY    72  65  78 CALM      29.94R
MUSCATINE *    CLOUDY    72  64  78 N7        29.93R
QUAD CITIES    CLOUDY    72  67  84 CALM      29.90S
$$

IAZ062-063-075>077-085>089-095>099-260600-
   SOUTHEAST IOWA

CITY           SKY/WX    TMP DP  RH WIND       PRES   REMARKS
BURLINGTON     CLOUDY    72  67  84 CALM      29.91F
FAIRFIELD *    MOCLDY    70  64  83 N7        29.93F
FORT MADISON * CLOUDY    73  66  78 S6        29.92S
KEOKUK *       CLOUDY    73  64  73 CALM      29.91S
OSKALOOSA *      N/A     66  64  94 NE5       29.93F
OTTUMWA        PTCLDY    69  64  84 E8        29.93F
WASHINGTON *   CLOUDY    70  68  94 N3        29.95S
$$

ABBREVIATIONS USED IN REMARKS
   TC - TEMPERATURES IN CELSIUS
  WCI - WIND CHILL INDEX
   HX - HEAT INDEX
  VSB - VISIBILITY
$$





USA.gov is the U.S. government's official web portal to all federal, state and local government web resources and services.